Вернуться в каталог

PRAETORIAN SDA_512

АктивенPO
NORAD 100070·PAYLOAD·🇺🇸 United States

Запущен Jul 16, 2026 с Vandenberg Space Force Base

Loading…

Ближайшие Пролёты (ближайшие 24 часа)

TLE

СвежийSource: Space-Track

Эпоха: Sep 14, 2026, 23:11 UTC

1 A0070U 26163M   26257.96624022  .00000122  00000-0  95280-4 0  9991
2 A0070  81.4790 254.9925 0016404  53.8630 306.4043 13.85888255  8331

Отслеживайте PRAETORIAN SDA_512 в реальном времени с AllMySat

Download on the App Store